Location: Chihuahua
(28.6330°N, 106.0830°W)
Time: 09:17:40
(UTC-07:00)

Daily predictions for brighter satellites

Satellite Brightness Start Highest point End
(mag) Time Altitude Azimuth Time Altitude Azimuth Time Altitude Azimuth
Cosmos 1295 Rocket 4.4 17:24:50 10° N 17:30:58 79° E 17:37:02 10° S
SPOT 3 Rocket 3.6 17:27:50 10° SSE 17:32:58 63° ENE 17:38:05 10° N
CZ-3B DEB 2.8 17:31:31 10° W 17:34:13 31° NNW 17:39:52 10° NNE
CZ-4 R/B 1.5 17:30:25 10° SSE 17:34:37 87° ENE 17:38:47 10° N
MSX 4.2 17:30:03 10° SE 17:35:24 42° ENE 17:40:46 10° N
SJ-12 3.8 17:32:14 10° SSE 17:36:17 75° ENE 17:40:23 10° N
Cosmos 1844 4.2 17:34:09 10° SSW 17:39:38 61° WNW 17:45:08 10° N
Cosmos 2297 4.5 17:36:32 10° SSE 17:41:26 31° ESE 17:46:20 10° NE
CORIOLIS 4.2 17:37:11 10° SSE 17:42:33 67° ENE 17:47:55 10° N
USA 32 4.4 17:42:21 10° S 17:47:33 70° W 17:52:45 10° N
IDEFIX/ARIANE 42P 2.6 17:46:18 10° SSE 17:51:31 86° WSW 17:56:43 10° NNW
Cosmos 1975 3.5 17:49:30 10° NNE 17:53:10 32° E 17:56:48 10° SE
Cosmos 2278 Rocket 2.4 17:51:02 10° SSW 17:56:40 76° WNW 18:02:20 10° NNE
Meteor 1-12 Rocket 4.4 17:52:47 10° N 17:58:30 58° E 18:04:18 10° SSE
Tiangong 1 1.7 17:56:35 10° WSW 17:59:31 45° NNW 18:01:34 17° NE
COSMO-SKYMED 1 2.5 17:56:18 10° NNE 18:00:39 74° ESE 18:04:57 10° S
Cosmos 1544 Rocket 3.7 17:56:11 10° N 18:00:39 83° W 18:05:06 10° S
EP 1 4.2 18:00:05 10° SSW 18:03:02 78° ESE 18:04:42 20° NNE
Nadezhda 3 Rocket 4.1 17:57:27 10° SSE 18:03:23 52° E 18:09:23 10° NNE
Fermi 4.3 18:00:55 10° W 18:04:56 53° S 18:08:13 15° ESE
NOSS 3-3 (A) 4.5 18:00:35 10° SW 18:06:35 59° WNW 18:12:57 10° NNE
NOSS 3-3 (C) 4.5 18:00:41 10° SW 18:06:41 60° WNW 18:13:03 10° NNE
COSMOS 2406 4.1 18:03:01 10° NNW 18:08:34 53° WSW 18:14:07 10° S
Cosmos 1484 Rocket 2.6 18:06:16 10° SSE 18:10:01 60° ENE 18:13:42 10° N
Cosmos 494 Rocket 4.0 18:05:26 10° N 18:10:38 62° ENE 18:15:49 10° SSE
Cosmos 1536 Rocket 4.4 18:09:20 10° SSW 18:13:40 54° W 18:18:03 10° N
Meteor 1-13 Rocket 4.2 18:10:37 10° S 18:16:06 61° E 18:21:44 10° NNE
YAOGAN 1 4.3 18:16:51 10° SSW 18:20:49 36° W 18:24:48 10° NNW
ATLAS 2AS CENTAUR R/B 2.9 18:14:19 10° NNW 18:22:16 71° ENE 18:29:32 10° SE
NOAA 12 4.3 18:23:25 10° SE 18:28:25 44° ENE 18:33:23 10° N
Cosmos 2082 Rocket 3.4 18:24:15 10° N 18:27:09 21° NE 18:27:09 21° NE
Cosmos 1025 Rocket 3.4 18:25:07 10° SSE 18:29:10 39° E 18:29:53 36° ENE
Timation 1 Rocket 4.2 18:23:28 10° SSW 18:29:24 75° ESE 18:34:04 17° NNE
Cosmos 2251 Rocket 3.9 18:25:55 10° NNW 18:31:13 68° WSW 18:36:26 10° S
SL-27 R/B 4.3 18:28:27 10° NW 18:31:47 34° W 18:35:03 10° SSW
Cosmos 1833 Rocket 4.4 18:28:09 10° NNE 18:29:26 15° NNE 18:29:26 15° NNE
METEOR-M 4.4 18:28:10 10° SE 18:33:08 41° ENE 18:38:06 10° N
Cosmos 1500 3.2 18:31:09 10° N 18:34:59 82° W 18:38:49 10° S
Cosmos 921 Rocket 2.8 18:31:52 10° SSW 18:36:02 89° SE 18:38:26 26° NNE
Meteor 1-28 Rocket 3.6 18:35:18 13° N 18:38:39 61° WNW 18:42:22 10° SSW
Hubble Space Telescope 3.1 18:38:49 10° WSW 18:41:55 20° SSW 18:45:00 10° SSE
Meteor 2-21 Rocket 4.3 18:36:33 10° N 18:42:44 74° E 18:48:50 10° S
Okean 1-7 Rocket 3.7 18:38:40 10° S 18:43:12 77° W 18:47:00 14° N
Meteor 2-16 Rocket 4.3 18:41:35 10° N 18:47:37 64° E 18:53:37 10° SSE
FALCON 9 R/B 3.5 18:23:01 10° W 18:47:38 67° NNW 18:51:03 35° NE
Meteor 2-4 Rocket 3.5 18:42:35 10° S 18:47:58 67° E 18:50:24 33° NNE
CZ-3B R/B 3.8 18:45:34 10° WSW 18:48:19 25° SSW 18:48:19 25° SSW
OTV 4 1.7 18:45:41 10° WNW 18:47:43 39° WNW 18:47:43 39° WNW
Palapa 6 Rocket 4.2 18:43:18 10° WSW 18:49:09 46° S 18:51:00 32° SE
GPS 2-14 Rocket1 4.2 18:50:16 10° WSW 18:53:44 27° S 18:54:17 26° SSE
Delta 2 Rocket 4.1 18:55:22 10° W 18:58:57 42° NNW 18:58:57 42° NNW
GEOS 3 Rocket 3.4 18:57:49 45° SE 18:59:23 74° ENE 19:04:30 10° NNW
Aurora 2 Rocket 4.5 18:53:50 10° WSW 19:04:32 68° S 19:07:54 42° ESE
NOSS 2-1 (C) 4.5 19:01:08 10° SW 19:04:41 36° WNW 19:05:12 34° NW
Helios 1B rocket 4.5 19:09:08 18° S 19:09:08 18° S 19:10:18 10° S
Cosmos 1535 Rocket 4.3 19:01:43 10° N 19:08:01 84° E 19:14:13 10° S
Cosmos 1934 Rocket 3.8 19:04:33 10° N 19:10:45 68° E 19:17:00 10° SSE
Cosmos 2056 Rocket 3.5 19:09:53 10° SSW 19:15:18 85° WNW 19:15:26 84° NW
Timation 2 Rocket 4.0 19:08:37 10° NNW 19:15:29 76° ENE 19:18:28 37° SSE
Delta 128 4.1 19:09:57 10° WSW 19:16:20 73° S 19:16:24 73° SSE
Cosmos 1821 Rocket 4.4 19:28:14 10° NNW 19:34:11 57° W 19:40:06 10° S
Mugunghwa Rocket 4.4 19:42:57 10° W 19:49:51 68° WSW 19:49:51 68° WSW
Cosmos 2082 Rocket 4.5 20:07:46 10° NW 20:09:08 17° NW 20:09:08 17° NW
ATLAS 3B CENTAUR R/B 3.7 20:06:32 10° W 20:15:39 47° W 20:15:39 47° W
